Regional Weather Roundup
Issued by NWS

Home | Current Version | Previous Version | Text Only | Print | Product List | Glossary Off
Versions: 1 2 3 4 5 6 7 8 9 10 11 12 13 14 15 16 17 18 19 20 21 22 23 24 25 26 27 28 29 30 31 32 33 34 35 36 37 38 39 40 41 42 43 44 45 46 47 48 49 50

000
ASUS43 KLSX 281910
RWRMO

WEATHER SUMMARY FOR MISSOURI
NATIONAL WEATHER SERVICE SPRINGFIELD MO
200 PM CDT SAT MAY 28 2016

NOTE: "FAIR" INDICATES FEW OR NO CLOUDS BELOW 12,000 FEET WITH NO
       SIGNIFICANT WEATHER AND/OR OBSTRUCTIONS TO VISIBILITY.
       CURRENT SKY AND/OR WEATHER CONDITIONS ARE NOT AVAILABLE FOR
       CHILLICOTHE AND FARMINGTON.

MOZ001>031-035>038-043-044-053-054-282000-
...NORTHERN AND WESTERN MISSOURI...

CITY           SKY/WX    TMP DP  RH WIND       PRES   REMARKS
KANSAS CTY INT MOSUNNY   73  60  63 W15G24    29.88R
KANSAS C DTWN  PTSUNNY   74  60  61 W9        29.87R
LEE`S SUMMIT   MOSUNNY   74  60  61 SW16      29.89S
ST JOSEPH      MOSUNNY   74  60  61 SW13      29.85S
CHILLICOTHE      N/A     73  62  68 SW9       29.87R
KIRKSVILLE     LGT RAIN  75  64  68 SW16G22   29.87S

$$
MOZ066>068-077>081-088>096-101>105-282000-
...SOUTHWEST MISSOURI...

CITY           SKY/WX    TMP DP  RH WIND       PRES   REMARKS
SPRINGFIELD    MOSUNNY   78  65  63 W13       29.96R
JOPLIN         PTSUNNY   76  65  68 S12       29.94F
BRANSON        MOSUNNY   81  66  61 SW6       29.99S

$$
MOZ032>034-039>042-045>050-055>058-069>072-282000-
...CENTRAL MISSOURI...

CITY           SKY/WX    TMP DP  RH WIND       PRES   REMARKS
COLUMBIA       PTSUNNY   81  64  56 SW17G26   29.90R
JEFFERSON CITY SUNNY     82  66  58 S14G22    29.88F
ROLLA          MOSUNNY   80  67  64 S13       29.92F
SEDALIA        PTSUNNY   78  62  57 SW17G23   29.92R
WHITEMAN AFB   MOSUNNY   77  65  65 W20       29.88S
WARRENSBURG    MOSUNNY   75  61  60 SW13G21   29.90R

$$
MOZ051-052-059>065-282000-
...EAST CENTRAL MISSOURI...

CITY           SKY/WX    TMP DP  RH WIND       PRES   REMARKS
ST LOUIS INTL  PTSUNNY   84  64  50 S13G18    29.92F
SPIRIT OF STL  PTSUNNY   83  67  58 S8        29.91S
ST CHARLES     MOSUNNY   84  69  60 S13       29.90F

$$
MOZ072>076-082>087-097>100-106>115-282000-
...SOUTH CENTRAL AND SOUTHEAST MISSOURI...

CITY           SKY/WX    TMP DP  RH WIND       PRES   REMARKS
CAPE GIRARDEAU CLOUDY    80  68  66 S10       29.99F
FARMINGTON     MOSUNNY   79  67  66 S13       29.98F
POPLAR BLUFF   PTSUNNY   81  68  64 S9        29.98F
WEST PLAINS    MOSUNNY   79  65  62 S12       29.99F

$$




USA.gov is the U.S. government's official web portal to all federal, state and local government web resources and services.